Location: Jabiru
(12.6667°S, 132.8333°E)
Time: 19:41:39
(UTC+09:30)

N. Korean satellite - Visible Passes

Search period start: 16 October 2019 00:00
Search period end: 26 October 2019 00:00
Orbit: 455 x 508 km, 97.2° (Epoch: 15 October)

Date Brightness Start Highest point End Pass type
(mag) Time Alt. Az. Time Alt. Az. Time Alt. Az.
16 Oct 10.2 05:18:02 10° ENE 05:20:10 15° ESE 05:22:19 10° SE visible
18 Oct 10.7 19:16:41 10° WSW 19:16:58 10° WSW 19:17:13 10° W visible
19 Oct 9.2 05:34:25 10° NE 05:37:36 27° ESE 05:40:48 10° SSE visible
20 Oct 10.5 05:11:12 10° E 05:12:27 11° ESE 05:13:42 10° SE visible
22 Oct 10.2 19:07:27 10° SW 19:09:10 13° WSW 19:10:53 10° WNW visible
23 Oct 9.7 05:26:59 10° NE 05:29:50 21° ESE 05:32:42 10° SSE visible
